This is the latest recevied weather packets stored in our database for station/object EA1AHA-13. If no packets are shown the sender has not sent any weather packets the latest 1 day(s).
| Time | Temp. | Humidity | Pressure | Rain* | Wind** | Luminosity | Snow |
|---|---|---|---|---|---|---|---|
| 1778015165 | 12.78° C | 85% | 1014.5 hPa | 0 mm | 2.24 m/s, 247° | - | - |
| 1778014588 | 12.78° C | 85% | 1014.5 hPa | 0 mm | 0.89 m/s, 247° | - | - |
| 1778013965 | 12.78° C | 84% | 1014.4 hPa | 0 mm | 0.89 m/s, 247° | - | - |
| 1778013389 | 12.78° C | 83% | 1014.4 hPa | 0 mm | 2.24 m/s, 270° | - | - |
| 1778012765 | 13.33° C | 82% | 1014.3 hPa | 0 mm | 2.24 m/s, 270° | - | - |
| 1778012189 | 13.33° C | 81% | 1014.1 hPa | 0 mm | 1.79 m/s, 270° | - | - |
| 1778011564 | 13.33° C | 81% | 1014 hPa | 0 mm | 1.34 m/s, 270° | - | - |
| 1778010988 | 13.33° C | 80% | 1013.8 hPa | 0 mm | 1.79 m/s, 247° | - | - |
| 1778010364 | 13.89° C | 80% | 1013.8 hPa | 0 mm | 1.34 m/s, 292° | - | - |
| 1778009788 | 13.33° C | 80% | 1013.8 hPa | 0 mm | 2.24 m/s, 315° | - | - |
| 1778009164 | 13.89° C | 78% | 1013.7 hPa | 0 mm | 2.68 m/s, 67° | - | - |
| 1778008589 | 13.89° C | 77% | 1013.8 hPa | 0 mm | 2.24 m/s, 270° | - | - |
| 1778007966 | 14.44° C | 77% | 1013.7 hPa | 0 mm | 1.34 m/s, 315° | - | - |
| 1778007389 | 14.44° C | 78% | 1013.8 hPa | 0 mm | 1.34 m/s, 67° | - | - |
| 1778006765 | 14.44° C | 77% | 1013.6 hPa | 0 mm | 1.34 m/s, 337° | - | - |
| 1778006189 | 14.44° C | 77% | 1013.8 hPa | 0 mm | 0.89 m/s, 247° | - | - |
| 1778005565 | 15° C | 75% | 1013.7 hPa | 0 mm | 1.34 m/s, 292° | - | - |
| 1778004989 | 15° C | 74% | 1013.5 hPa | 0 mm | 1.34 m/s, 270° | - | - |
| 1778004412 | 15° C | 75% | 1013.5 hPa | 0 mm | 3.58 m/s, 315° | - | - |
| 1778003789 | 14.44° C | 77% | 1013.6 hPa | 0 mm | 3.13 m/s, 45° | - | - |
| 1778003165 | 14.44° C | 78% | 1013.6 hPa | 0 mm | 2.24 m/s, 270° | - | - |
| 1778002589 | 14.44° C | 77% | 1013.7 hPa | 0 mm | 2.68 m/s, 270° | - | - |
| 1778001965 | 14.44° C | 79% | 1013.6 hPa | 0 mm | 2.68 m/s, 292° | - | - |
| 1778001389 | 14.44° C | 77% | 1013.5 hPa | 0 mm | 3.58 m/s, 337° | - | - |
| 1778000765 | 15° C | 73% | 1013.4 hPa | 0 mm | 2.68 m/s, 157° | - | - |
* Rain latest hour (hover to see other rain measurements)
** Current wind speed in m/s (hover to see current wind gust speed)